TimeEST,TemperatureF,Dew PointF,Humidity,Sea Level PressureIn,VisibilityMPH,Wind Direction,Wind SpeedMPH,Gust SpeedMPH,PrecipitationIn,Events,Conditions,WindDirDegrees,DateUTC
12:53 AM,8.1,3.0,80,30.79,10.0,Calm,Calm,-,N/A,,Clear,0,2008-01-03 05:53:00
1:53 AM,6.1,1.0,80,30.78,10.0,Calm,Calm,-,N/A,,Clear,0,2008-01-03 06:53:00
2:53 AM,1.9,-2.0,83,30.79,10.0,Calm,Calm,-,N/A,,Clear,0,2008-01-03 07:53:00
3:53 AM,1.0,-2.9,83,30.81,10.0,Calm,Calm,-,N/A,,Clear,0,2008-01-03 08:53:00
4:53 AM,1.0,-2.9,83,30.81,10.0,Calm,Calm,-,N/A,,Clear,0,2008-01-03 09:53:00
5:53 AM,3.0,-2.0,80,30.81,10.0,Calm,Calm,-,N/A,,Clear,0,2008-01-03 10:53:00
6:53 AM,-0.9,-5.1,83,30.83,10.0,Calm,Calm,-,N/A,,Clear,0,2008-01-03 11:53:00
7:53 AM,1.0,-4.0,79,30.84,10.0,Calm,Calm,-,N/A,,Clear,0,2008-01-03 12:53:00
8:53 AM,6.1,1.9,83,30.82,7.0,South,3.5,-,N/A,,Clear,180,2008-01-03 13:53:00
9:53 AM,10.0,6.1,84,30.84,9.0,SSW,3.5,-,N/A,,Clear,200,2008-01-03 14:53:00
10:53 AM,14.0,9.0,80,30.83,10.0,SSW,4.6,-,N/A,,Clear,200,2008-01-03 15:53:00
11:53 AM,19.0,10.0,68,30.81,10.0,SSW,5.8,-,N/A,,Clear,210,2008-01-03 16:53:00
12:53 PM,21.0,10.9,65,30.76,10.0,South,8.1,-,N/A,,Clear,180,2008-01-03 17:53:00
1:53 PM,23.0,10.9,60,30.74,10.0,South,10.4,-,N/A,,Clear,190,2008-01-03 18:53:00
2:53 PM,25.0,12.9,60,30.71,10.0,SW,8.1,-,N/A,,Clear,220,2008-01-03 19:53:00
3:53 PM,26.1,12.9,58,30.69,10.0,South,10.4,-,N/A,,Clear,190,2008-01-03 20:53:00
4:53 PM,25.0,12.9,60,30.67,10.0,South,10.4,-,N/A,,Clear,180,2008-01-03 21:53:00
5:53 PM,21.9,12.0,66,30.66,10.0,South,5.8,-,N/A,,Clear,180,2008-01-03 22:53:00
6:53 PM,19.9,10.9,68,30.65,10.0,South,4.6,-,N/A,,Clear,170,2008-01-03 23:53:00
7:53 PM,19.9,12.0,71,30.63,10.0,SSE,6.9,-,N/A,,Clear,160,2008-01-04 00:53:00
8:53 PM,19.9,12.0,71,30.62,10.0,South,5.8,-,N/A,,Clear,180,2008-01-04 01:53:00
9:53 PM,19.9,12.0,71,30.59,10.0,South,6.9,-,N/A,,Clear,180,2008-01-04 02:53:00
10:53 PM,21.0,12.9,71,30.58,10.0,South,8.1,-,N/A,,Clear,170,2008-01-04 03:53:00
11:53 PM,21.9,12.0,66,30.56,10.0,South,9.2,-,N/A,,Clear,190,2008-01-04 04:53:00